This demonstration page uses our WeatherBlox Daily Observations layout. Learn more.

Left ArrowRight Arrow

Hourly Observations for April 29, 2021

Temp ( °F °C ) Dew Point ( °F °C ) Humidity (%) Winds ( mph kmh ) Pressure ( in mb ) Visibility ( mi km ) Precip ( " mm )
12:53 am 00:53 Clear 47 8.3 33 0.6 59 59 W 3 6 30.09 1019 10 16 0.00 0.00
1:53 am 01:53 Clear 49 9.4 33 0.6 55 55 SW 13 20 30.09 1019 10 16 0.00 0.00
2:53 am 02:53 Clear 48 8.9 34 1.1 58 58 WSW 12 19 30.09 1019 10 16 0.00 0.00
3:53 am 03:53 Clear 48 8.9 34 1.1 58 58 WSW 13 20 30.10 1019 10 16 0.00 0.00
4:53 am 04:53 Clear 48 8.9 35 1.7 61 61 WSW 9 15 30.11 1020 10 16 0.00 0.00
5:53 am 05:53 Clear 48 8.9 35 1.7 61 61 W 8 13 30.13 1020 10 16 0.00 0.00
6:53 am 06:53 Mostly Sunny 49 9.4 35 1.7 59 59 WNW 3 6 30.14 1021 10 16 0.00 0.00
7:53 am 07:53 Sunny 50 10 33 0.6 52 52 SE 3 6 30.15 1021 10 16 0.00 0.00
8:53 am 08:53 Mostly Sunny 53 11.7 34 1.1 48 48 VRB 3 6 30.15 1021 10 16 0.00 0.00
9:53 am 09:53 Partly Cloudy 58 14.4 37 2.8 46 46 WSW 5 7 30.14 1021 10 16 0.00 0.00
10:53 am 10:53 Cloudy 63 17.2 38 3.3 40 40 W 9 15 30.13 1020 10 16 0.00 0.00
11:53 am 11:53 Cloudy 65 18.3 37 2.8 36 36 WSW 14 22 30.12 1020 10 16 0.00 0.00
1:53 pm 13:53 Cloudy 68 20 40 4.4 36 36 SW 8 13 30.08 1019 10 16 0.00 0.00
2:25 pm 14:25 Mostly Cloudy 70 21.1 40 4.4 34 34 WNW 15 24 29.97 1015 10 16 0.00 0.00
2:53 pm 14:53 Mostly Cloudy 71 21.7 40 4.4 32 32 WNW 15 24 30.06 1018 10 16 0.00 0.00
3:53 pm 15:53 Cloudy 71 21.7 41 5 34 34 WNW 12 19 30.05 1018 10 16 0.00 0.00
4:53 pm 16:53 Cloudy 73 22.8 40 4.4 30 30 W 16 26 30.03 1017 10 16 0.00 0.00
5:53 pm 17:53 Cloudy 73 22.8 39 3.9 29 29 W 17 28 30.03 1017 10 16 0.00 0.00
6:53 pm 18:53 Mostly Cloudy 73 22.8 39 3.9 29 29 W 17 28 30.03 1017 10 16 0.00 0.00
7:53 pm 19:53 Sunny 69 20.6 38 3.3 32 32 WNW 15 24 30.03 1017 10 16 0.00 0.00
8:53 pm 20:53 Clear 62 16.7 38 3.3 41 41 WNW 9 15 30.05 1018 10 16 0.00 0.00
9:53 pm 21:53 Clear 53 11.7 38 3.3 57 57 SSW 7 11 30.06 1018 10 16 0.00 0.00
10:53 pm 22:53 Clear 56 13.3 38 3.3 51 51 SW 5 7 30.04 1017 10 16 0.00 0.00
11:53 pm 23:53 Clear 53 11.7 38 3.3 57 57 WNW 3 6 30.02 1017 10 16 0.00 0.00

Powered by AerisWeather